CW2931 Weather Reports


Display with metric or nautical units.
time (UTC)temp
F
wind
direction
speed
MPH
gust
MPH
rain 1hr
in
rain 24hr
in
rain mn
in
humidity
%
barometer
mb
20260505100105 61 270 0.0 0.0 0.00 0.11 0.03 79 1000.4
20260505095104 60 213 0.0 0.0 0.00 0.11 0.03 80 1000.4
20260505094605 60 263 0.0 0.0 0.00 0.11 0.03 80 1000.5
20260505093604 60 242 0.0 0.0 0.00 0.11 0.03 81 1000.6
20260505093106 60 274 0.0 0.0 0.00 0.11 0.03 81 1000.4
20260505092105 60 246 0.0 0.0 0.00 0.11 0.03 82 1000.3
20260505091105 60 270 0.0 0.0 0.00 0.11 0.03 82 1000.4
20260505090605 60 230 0.0 0.0 0.00 0.11 0.03 82 1000.3
20260505090105 60 244 0.0 0.0 0.00 0.11 0.03 82 1000.2
20260505085606 60 244 0.0 0.0 0.00 0.11 0.03 81 1000.2
20260505085104 60 217 0.0 0.0 0.00 0.11 0.03 81 1000.2
20260505084605 60 232 0.0 0.0 0.00 0.11 0.03 82 1000.2
20260505084104 61 222 0.0 0.0 0.00 0.11 0.03 82 1000.2
20260505083605 61 243 0.0 0.0 0.00 0.11 0.03 82 1000.2
20260505082104 60 260 0.0 0.0 0.00 0.11 0.03 82 999.9
20260505081605 60 239 0.0 0.0 0.00 0.11 0.03 82 999.7
20260505081104 60 239 0.0 0.0 0.00 0.11 0.03 82 999.7
20260505080605 60 232 0.0 0.0 0.00 0.11 0.03 82 999.7
20260505080104 60 216 0.0 0.0 0.00 0.11 0.03 82 999.5
20260505075604 60 232 0.0 0.0 0.00 0.11 0.03 82 999.4
20260505075105 60 240 0.0 0.0 0.00 0.11 0.03 82 999.5
20260505074104 60 219 0.0 0.0 0.00 0.11 0.03 82 999.2
20260505073604 60 230 0.0 0.0 0.00 0.11 0.03 82 999.0
20260505073104 60 219 0.0 0.0 0.00 0.11 0.03 82 998.6
20260505072605 60 212 0.0 0.0 0.00 0.11 0.03 83 998.6
20260505071104 60 231 0.0 0.0 0.01 0.11 0.03 83 998.8
20260505070604 60 274 0.0 0.0 0.01 0.11 0.03 84 999.0
20260505065604 60 232 0.0 0.0 0.01 0.11 0.03 84 999.0
20260505065104 60 226 0.0 0.0 0.01 0.11 0.03 84 998.8
20260505064104 60 202 0.0 0.0 0.01 0.11 0.03 84 999.0
20260505063604 60 170 0.0 0.0 0.01 0.11 0.03 84 999.1
20260505063104 61 214 0.0 0.0 0.01 0.11 0.03 84 999.1
20260505062604 61 188 0.0 0.0 0.01 0.11 0.03 84 998.9
20260505062104 61 204 0.0 0.0 0.02 0.11 0.03 83 999.3
20260505061604 61 187 0.0 0.0 0.02 0.11 0.03 83 999.5
20260505061104 61 197 0.0 0.0 0.01 0.10 0.02 83 999.7
20260505055605 61 223 0.0 0.0 0.01 0.10 0.02 83 999.3
20260505055105 61 203 0.0 0.0 0.01 0.10 0.02 83 999.4
20260505054605 61 223 0.0 0.0 0.01 0.10 0.02 83 999.7
20260505054104 61 228 0.0 0.0 0.01 0.10 0.02 82 999.7
20260505053604 61 235 0.0 0.0 0.02 0.10 0.02 82 999.4
20260505053105 61 200 0.0 0.0 0.02 0.10 0.02 82 999.7
20260505052604 61 211 0.0 0.0 0.02 0.10 0.02 81 999.8
20260505052105 61 251 0.0 0.0 0.01 0.09 0.01 81 1000.2
20260505051104 62 228 0.0 0.0 0.01 0.09 0.01 79 1000.2
20260505050604 62 252 0.0 0.0 0.01 0.09 0.01 79 1000.2
20260505050104 62 234 0.0 0.0 0.01 0.09 0.01 78 1000.2
20260505041604 67 248 0.0 0.0 0.00 0.08 0.00 64 999.8
20260505041104 67 264 0.0 0.0 0.00 0.08 0.00 64 999.6
20260505040604 67 222 0.0 0.0 0.00 0.08 0.00 64 999.4
20260505040104 67 226 0.0 0.0 0.00 0.08 0.00 64 999.4
20260505035604 67 193 0.0 0.0 0.00 0.08 0.08 64 999.3
20260505035104 67 199 0.0 0.0 0.00 0.08 0.08 64 999.2
20260505034604 67 219 0.0 0.0 0.00 0.08 0.08 64 999.2
20260505034104 67 214 0.0 0.0 0.00 0.08 0.08 65 999.2
20260505033604 67 208 0.0 0.0 0.00 0.08 0.08 65 999.2
20260505032104 67 222 0.0 0.0 0.00 0.08 0.08 67 999.2
20260505031604 67 205 0.0 0.0 0.00 0.08 0.08 67 999.3
20260505031105 66 216 0.0 0.0 0.00 0.08 0.08 69 999.4
20260505030605 66 220 0.0 0.0 0.00 0.08 0.08 69 999.5
20260505030104 66 213 0.0 0.0 0.00 0.08 0.08 71 999.6
20260505025605 65 232 0.0 0.0 0.00 0.08 0.08 72 999.7
20260505025104 64 207 0.0 0.0 0.00 0.08 0.08 73 999.8
20260505024604 64 204 0.0 0.0 0.00 0.08 0.08 74 999.8
20260505023605 64 218 0.0 0.0 0.00 0.08 0.08 75 999.9
20260505023104 64 200 0.0 0.0 0.00 0.08 0.08 75 999.8
20260505022604 64 188 0.0 0.0 0.00 0.08 0.08 75 999.8
20260505021604 64 186 0.0 0.0 0.00 0.08 0.08 75 999.8
20260505021104 64 186 0.0 0.0 0.00 0.08 0.08 75 999.7
20260505020604 64 193 0.0 0.0 0.00 0.08 0.08 75 999.7
20260505020104 64 205 0.0 0.0 0.00 0.08 0.08 75 999.6
20260505015104 64 224 0.0 0.0 0.00 0.08 0.08 76 999.6
20260505014604 64 230 0.0 0.0 0.01 0.08 0.08 76 999.5
20260505014105 64 208 0.0 0.0 0.01 0.08 0.08 77 999.5
20260505013104 64 205 0.0 0.0 0.01 0.08 0.08 78 999.3
20260505012604 64 206 0.0 0.0 0.01 0.08 0.08 78 999.2
20260505011604 64 201 0.0 0.0 0.02 0.08 0.08 78 999.2
20260505011104 64 193 0.0 0.0 0.03 0.08 0.08 78 999.1
20260505010605 64 228 0.0 0.0 0.04 0.08 0.08 78 998.9
20260505010104 64 239 0.0 0.0 0.05 0.08 0.08 79 998.8
20260505005104 63 176 0.0 0.0 0.05 0.08 0.08 79 998.9
20260505004604 63 222 0.0 0.0 0.04 0.07 0.07 79 999.0
20260505004104 63 219 0.0 0.0 0.05 0.07 0.07 79 999.2
20260505003604 64 213 0.0 0.0 0.05 0.07 0.07 80 999.3
20260505003105 64 224 0.0 0.0 0.05 0.07 0.07 79 999.4
20260505002605 64 231 0.0 0.0 0.05 0.07 0.07 78 999.3
20260505002104 65 215 0.0 0.0 0.06 0.07 0.07 76 999.7
20260505001604 66 195 0.0 0.0 0.06 0.06 0.06 74 999.8
20260505001104 66 268 0.0 0.0 0.05 0.05 0.05 72 999.8
20260505000105 67 248 0.0 0.0 0.03 0.03 0.03 69 999.7
20260504235604 67 251 0.0 0.0 0.03 0.03 0.03 68 999.4
20260504235104 68 259 0.0 5.0 0.03 0.03 0.03 67 999.3
20260504234604 69 258 6.0 16.0 0.03 0.03 0.03 64 999.3
20260504233604 71 268 0.0 0.0 0.02 0.02 0.02 58 999.3
20260504233104 73 265 0.0 0.0 0.02 0.02 0.02 56 999.2
20260504232605 74 241 1.0 10.0 0.02 0.02 0.02 55 998.7
20260504232104 75 226 3.0 10.0 0.01 0.01 0.01 50 998.2
20260504231105 76 208 4.0 7.0 0.00 0.00 0.00 47 998.1
20260504230604 76 212 3.0 10.0 0.00 0.00 0.00 47 998.2
20260504225604 76 220 5.0 12.0 0.00 0.00 0.00 46 998.2
20260504224604 77 194 3.0 12.0 0.00 0.00 0.00 45 998.1
20260504223104 78 216 0.0 0.0 0.00 0.00 0.00 45 998.2
20260504222604 78 205 0.0 0.0 0.00 0.00 0.00 46 998.2
20260504222104 77 202 0.0 0.0 0.00 0.00 0.00 46 998.4
20260504221604 77 196 0.0 0.0 0.00 0.00 0.00 46 998.6
20260504221104 78 211 0.0 0.0 0.00 0.00 0.00 46 998.6
20260504220604 78 224 0.0 0.0 0.00 0.00 0.00 45 998.6
20260504220104 78 229 0.0 0.0 0.00 0.00 0.00 45 998.7
20260504215604 77 250 0.0 0.0 0.00 0.00 0.00 45 998.8
20260504215105 77 220 0.0 0.0 0.00 0.00 0.00 45 998.8
20260504214604 77 268 0.0 0.0 0.00 0.00 0.00 44 998.8
20260504214104 77 237 0.0 0.0 0.00 0.00 0.00 43 999.0
20260504213604 78 256 0.0 0.0 0.00 0.00 0.00 43 999.0
20260504213104 77 229 0.0 0.0 0.00 0.00 0.00 43 999.1
20260504212104 76 242 0.0 0.0 0.00 0.00 0.00 43 999.3
20260504211604 76 214 0.0 0.0 0.00 0.00 0.00 42 999.3
20260504210605 77 229 0.0 0.0 0.00 0.00 0.00 40 999.4
20260504210104 77 192 0.0 0.0 0.00 0.00 0.00 40 999.6
20260504205604 77 228 0.0 9.0 0.00 0.00 0.00 40 999.7
20260504204604 77 241 12.0 21.0 0.00 0.00 0.00 38 999.8
20260504203604 76 226 7.0 15.0 0.00 0.00 0.00 38 999.8
20260504203106 76 220 10.0 20.0 0.00 0.00 0.00 37 999.9
20260504202104 77 221 9.0 17.0 0.00 0.00 0.00 36 999.9
20260504201605 77 230 6.0 20.0 0.00 0.00 0.00 37 999.9
20260504201105 77 179 8.0 20.0 0.00 0.00 0.00 35 1000.0
20260504200604 78 249 7.0 16.0 0.00 0.00 0.00 35 999.9
20260504200104 77 218 7.0 14.0 0.00 0.00 0.00 35 1000.0
20260504195604 77 237 6.0 23.0 0.00 0.00 0.00 34 1000.1
20260504195105 77 214 10.0 22.0 0.00 0.00 0.00 34 1000.2
20260504194104 78 240 11.0 17.0 0.00 0.00 0.00 33 1000.3
20260504193604 77 210 10.0 18.0 0.00 0.00 0.00 32 1000.3
20260504193104 78 217 10.0 23.0 0.00 0.00 0.00 31 1000.3
20260504192604 78 215 10.0 17.0 0.00 0.00 0.00 30 1000.4
20260504192104 78 203 9.0 17.0 0.00 0.00 0.00 31 1000.4
20260504191604 78 231 10.0 17.0 0.00 0.00 0.00 30 1000.4
20260504185604 77 254 9.0 17.0 0.00 0.00 0.00 31 1000.5
20260504185104 77 253 10.0 21.0 0.00 0.00 0.00 31 1000.6
20260504184604 77 252 6.0 17.0 0.00 0.00 0.00 31 1000.6
20260504184104 77 217 9.0 17.0 0.00 0.00 0.00 30 1000.9
20260504183604 77 238 7.0 22.0 0.00 0.00 0.00 31 1001.0
20260504182604 76 250 6.0 16.0 0.00 0.00 0.00 32 1001.0
20260504182104 76 269 6.0 17.0 0.00 0.00 0.00 33 1001.0
20260504181604 76 209 12.0 26.0 0.00 0.00 0.00 31 1001.1
20260504181104 76 202 9.0 17.0 0.00 0.00 0.00 31 1001.1
20260504180604 76 244 10.0 20.0 0.00 0.00 0.00 34 1001.0
20260504175603 76 242 6.0 15.0 0.00 0.00 0.00 36 1001.3
20260504175103 76 231 8.0 17.0 0.00 0.00 0.00 36 1001.5
20260504174604 75 215 6.0 20.0 0.00 0.00 0.00 36 1001.6
20260504174104 75 230 7.0 16.0 0.00 0.00 0.00 38 1001.6
20260504173604 75 245 6.0 12.0 0.00 0.00 0.00 38 1001.7
20260504172604 74 228 10.0 20.0 0.00 0.00 0.00 38 1001.9
20260504171604 74 207 9.0 17.0 0.00 0.00 0.00 40 1002.1
20260504171104 74 211 7.0 21.0 0.00 0.00 0.00 41 1002.1
20260504170604 74 210 5.0 14.0 0.00 0.00 0.00 43 1002.1
20260504170103 73 234 0.0 0.0 0.00 0.00 0.00 45 1002.2
20260504160104 70 233 0.0 0.0 0.00 0.00 0.00 50 1003.2
20260504150604 66 258 0.0 0.0 0.00 0.00 0.00 54 1003.5
20260504150104 66 215 0.0 0.0 0.00 0.00 0.00 56 1003.5
20260504140604 62 229 0.0 0.0 0.00 0.00 0.00 60 1003.9
20260504140104 62 259 0.0 0.0 0.00 0.00 0.00 60 1003.9
20260504130606 58 237 0.0 0.0 0.00 0.00 0.00 65 1004.5
20260504120103 54 221 0.0 0.0 0.00 0.00 0.00 71 1005.0
20260504110103 52 201 0.0 0.0 0.00 0.00 0.00 72 1004.9
20260504100604 52 242 0.0 0.0 0.00 0.00 0.00 69 1004.5